GW1942 Weather Reports


Display with metric or nautical units.
time (UTC)temp
F
wind
direction
speed
MPH
gust
MPH
rain 1hr
in
rain 24hr
in
rain mn
in
humidity
%
barometer
mb
20260504050108 50 160 0.0 2.0 0.00 0.00 0.00 66 1008.3
20260504044513 53 134 0.0 3.0 0.00 0.00 0.00 58 1008.3
20260504043012 52 208 0.0 3.0 0.00 0.00 0.00 63 1008.3
20260504041523 56 199 0.0 2.0 0.00 0.00 0.00 55 1008.1
20260504040006 60 101 2.0 8.0 0.00 0.00 0.00 45 1007.9
20260504034504 59 141 1.0 6.0 0.00 0.00 0.00 52 1007.8
20260504033003 61 165 2.0 9.0 0.00 0.00 0.00 45 1007.5
20260504031503 62 144 3.0 8.0 0.00 0.00 0.00 44 1007.4
20260504030002 64 69 0.0 8.0 0.00 0.00 0.00 43 1007.4
20260504024503 67 75 0.0 3.0 0.00 0.00 0.00 35 1007.3
20260504023002 71 212 0.0 2.0 0.00 0.00 0.00 30 1007.0
20260504021500 75 220 0.0 2.0 0.00 0.00 0.00 29 1006.9
20260504020132 77 218 0.0 2.0 0.00 0.00 0.00 25 1006.9
20260504014602 77 238 0.0 5.0 0.00 0.00 0.00 23 1007.1
20260504013121 78 237 1.0 4.0 0.00 0.00 0.00 21 1007.2
20260504011555 78 292 0.0 6.0 0.00 0.00 0.00 21 1007.4
20260504010055 79 238 1.0 8.0 0.00 0.00 0.00 19 1007.4
20260504004552 79 315 3.0 9.0 0.00 0.00 0.00 19 1007.5
20260504003051 79 308 2.0 12.0 0.00 0.00 0.00 18 1007.5
20260504001553 79 36 3.0 7.0 0.00 0.00 0.00 21 1007.7
20260504000049 79 56 2.0 8.0 0.00 0.00 0.00 20 1007.8
20260503234547 79 55 2.0 5.0 0.00 0.00 0.00 21 1007.9
20260503233046 79 37 0.0 9.0 0.00 0.00 0.00 20 1008.0
20260503231546 79 64 2.0 6.0 0.00 0.00 0.00 20 1008.0
20260503230044 79 39 2.0 7.0 0.00 0.00 0.00 19 1008.2
20260503224542 79 224 1.0 7.0 0.00 0.00 0.00 17 1008.4
20260503223039 79 213 2.0 8.0 0.00 0.00 0.00 17 1008.6
20260503221537 78 284 5.0 11.0 0.00 0.00 0.00 18 1008.7
20260503220035 78 136 1.0 11.0 0.00 0.00 0.00 18 1008.9
20260503214540 79 129 1.0 6.0 0.00 0.00 0.00 22 1009.1
20260503213031 77 58 0.0 6.0 0.00 0.00 0.00 21 1009.4
20260503211528 77 1 2.0 9.0 0.00 0.00 0.00 26 1009.8
20260503210025 76 252 2.0 6.0 0.00 0.00 0.00 25 1010.2
20260503204522 75 352 3.0 8.0 0.00 0.00 0.00 25 1010.5
20260503203027 75 131 3.0 7.0 0.00 0.00 0.00 24 1010.8
20260503201519 75 37 1.0 4.0 0.00 0.00 0.00 23 1011.1
20260503200015 74 85 1.0 5.0 0.00 0.00 0.00 25 1011.2
20260503194512 74 316 1.0 5.0 0.00 0.00 0.00 26 1011.5
20260503193013 73 86 0.0 5.0 0.00 0.00 0.00 28 1011.8
20260503191518 72 25 2.0 7.0 0.00 0.00 0.00 30 1011.9
20260503190002 71 6 1.0 6.0 0.00 0.00 0.00 31 1012.2
20260503184614 71 330 2.0 5.0 0.00 0.00 0.00 30 1012.5
20260503183055 69 292 2.0 5.0 0.00 0.00 0.00 32 1012.7
20260503181553 67 297 1.0 5.0 0.00 0.00 0.00 39 1013.0
20260503180055 65 283 1.0 4.0 0.00 0.00 0.00 42 1013.2
20260503174551 65 290 1.0 4.0 0.00 0.00 0.00 44 1013.3
20260503173042 63 248 0.0 3.0 0.00 0.00 0.00 45 1013.6
20260503171537 62 58 1.0 4.0 0.00 0.00 0.00 46 1013.7
20260503081533 41 125 0.0 2.0 0.00 0.00 0.00 83 1015.3